Find Starlink 33734

NORAD ID: 63367 Int'l Des: 2025-063 Owner: SPXS Country: US Constellation: starlink operational
LEOCIRCULAR

实时位置

正在加载3D地球...

关于 Starlink 33734

正在加载描述...

即将过境

Passes for default location (London). Set your location on the main map for personalized predictions.

高度历史

Loading altitude history...

两行轨道根数

1 63367U 25063E 26121.43072161 .00024699 00000-0 84338-3 0 9996
2 63367 53.1586 177.4584 0001181 75.8003 284.3129 15.30195382 62649
Epoch: May 1, 2026 • Age: 7 hours

当前状态

高度 489.8 km
速度 7.62 km/s
星下点 -41.79°S, 86.38°W
发射日期 Mar 26, 2025
运行时间 1 years
类型 internet

技术详情

分类 Payload
质量 575.00 kg
干质量 530.00 kg
总质量 575.00 kg
长度 0.30 m
直径 4.10 m
跨度 29.00 m
形状 Box + pan
制造商 SPXS
平台类型 Starlink V2MO
阶段状态 In Orbit
所有者/国家 SPXS/US

Most Searched